Paganella, Italy

7:53 AM CEST on June 28, 2017 (GMT +0200)
Paganella

Weather History for LIVP - December, 2012

Change the Weather History Date:

Saturday, December 1, 2012

  Actual Average Record
Temperature  
Mean Temperature 20 °F -  
Max Temperature 23 °F 30 °F 43 °F (2015)
Min Temperature 17 °F 21 °F 15 °F (2005)
Degree Days  
Heating Degree Days 45    
Moisture  
Dew Point 18 °F    
Average Humidity 87    
Maximum Humidity 93    
Minimum Humidity 80    
Precipitation  
Precipitation 0.00 in 0.04 in - ()
Sea Level Pressure  
Sea Level Pressure 29.63 in    
Wind  
Wind Speed 8 mph ()    
Max Wind Speed 15 mph    
Max Gust Speed -    
Visibility 1.2 miles    
Events Fog , Snow    
Averages and records for this station are not official NWS values.
T = Trace of Precipitation, MM = Missing Value Source: Averaged Metar Reports

Daily Weather History Graph

Daily Weather History Graph

Search for Another Location

Airport or City:

Trip Planner

Search our weather history database for the weather conditions in past years. The results will help you decide how hot, cold, wet, or windy it might be!

Date:

Astronomy

Dec. 01, 2012 Rise Set
Actual Time 7:38 AM CET 4:31 PM CET
Civil Twilight 7:04 AM CET 5:05 PM CET
Nautical Twilight 6:26 AM CET 5:43 PM CET
Astronomical Twilight 5:50 AM CET 6:19 PM CET
Moon 7:08 PM CET (12/1) 9:38 AM CET (12/1)
Length of Visible Light 10h 01m
Length of Day
8h 53m
Waning Gibbous, 93% of the Moon is Illuminated
Dec 1
Waning Gibbous
Dec 6
Last Quarter
Dec 13
New
Dec 20
First Quarter
Dec 28
Full

Hourly Weather History & Observations

Time (CET) Temp. Windchill Dew Point Humidity Pressure Visibility Wind Dir Wind Speed Gust Speed Precip Events Conditions
12:55 AM 19.4 °F 10.4 °F 17.6 °F 93% 29.56 in 3.1 mi NNE 6.9 mph - N/A Snow Light Snow
1:00 AM 20 °F - 17 °F 82%  in 3 mi NNE 6.9 mph - - Snow Light Snow
1:55 AM 21.2 °F 16.4 °F 17.6 °F 86% 29.56 in 1.9 mi SSE 3.5 mph - N/A Snow Light Snow
2:55 AM 21.2 °F - 17.6 °F 86% 29.56 in 5.0 mi Variable 2.3 mph - N/A Snow Light Snow
3:55 AM 21.2 °F 10.9 °F 17.6 °F 86% 29.56 in 3.1 mi SE 9.2 mph - N/A Snow Light Snow
4:00 AM 21 °F - 17 °F 80%  in 1 mi SE 9.2 mph - - Snow Light Snow
4:55 AM 21.2 °F 11.7 °F 17.6 °F 86% 29.56 in 3.1 mi SE 8.1 mph - N/A Snow Light Snow
5:55 AM 21.2 °F 9.5 °F 17.6 °F 86% 29.56 in 0.5 mi SE 11.5 mph - N/A Fog , Snow Light Snow
6:55 AM 21.2 °F 10.9 °F 17.6 °F 86% 29.59 in 0.3 mi SSE 9.2 mph - N/A Fog Light Freezing Fog
7:00 AM 21 °F - 18 °F 84%  in 0 mi SSE 9.2 mph - - Fog Heavy Fog
7:55 AM 21.2 °F 10.1 °F 17.6 °F 86% 29.59 in 0.3 mi SE 10.4 mph - N/A Fog Light Freezing Fog
8:55 AM 21.2 °F 9.5 °F 17.6 °F 86% 29.59 in 0.2 mi SSE 11.5 mph - N/A Fog Light Freezing Fog
9:55 AM 21.2 °F 8.9 °F 19.4 °F 93% 29.65 in 0.0 mi SSE 12.7 mph - N/A Fog Light Freezing Fog
10:00 AM 21 °F - 19 °F 87%  in 0 mi SSE 12.7 mph - - Fog Heavy Fog
10:55 AM 23.0 °F 14.7 °F 19.4 °F 86% 29.65 in 0.0 mi South 6.9 mph - N/A Fog Light Freezing Fog
11:55 AM 23.0 °F 14.7 °F 19.4 °F 86% 29.65 in 0.0 mi South 6.9 mph - N/A Fog Light Freezing Fog
12:55 PM 23.0 °F 13.9 °F 19.4 °F 86% 29.65 in 0.0 mi South 8.1 mph - N/A Fog Light Freezing Fog
1:00 PM 23 °F - 20 °F 83%  in 0 mi South 8.1 mph - - Fog Heavy Fog
1:55 PM 21.2 °F 7.8 °F 17.6 °F 86% 29.65 in 6.2 mi SSW 15.0 mph - N/A   Mostly Cloudy
2:55 PM 21.2 °F 8.9 °F 17.6 °F 86% 29.65 in 6.2 mi South 12.7 mph - N/A   Scattered Clouds
3:55 PM 21.2 °F 9.5 °F 19.4 °F 93% 29.65 in 0.1 mi SSW 11.5 mph - N/A Fog Light Freezing Fog
4:00 PM 22 °F - 18 °F 80%  in 0 mi SSW 11.5 mph - - Fog Heavy Fog
4:55 PM 21.2 °F 9.5 °F 17.6 °F 86% 29.65 in 0.1 mi SW 11.5 mph - N/A Fog Light Freezing Fog
5:55 PM 21.2 °F 9.5 °F 17.6 °F 86% 29.65 in 0.2 mi SW 11.5 mph - N/A Fog Light Freezing Fog
6:55 PM 21.2 °F 10.1 °F 19.4 °F 93% 29.65 in 0.6 mi SSW 10.4 mph - N/A Fog Light Freezing Fog
7:00 PM 22 °F - 18 °F 80%  in 1 mi SSW 10.4 mph - - Fog Heavy Fog
7:55 PM 21.2 °F 13.6 °F 19.4 °F 93% 29.68 in 0.0 mi South 5.8 mph - N/A Fog Light Freezing Fog
8:55 PM 21.2 °F 12.6 °F 19.4 °F 93% 29.68 in 0.0 mi SSW 6.9 mph - N/A Fog Light Freezing Fog
9:55 PM 23.0 °F 13.1 °F 19.4 °F 86% 29.65 in - SSW 9.2 mph - N/A Fog Light Freezing Fog
10:00 PM 22 °F - 20 °F 86%  in 0 mi SSW 9.2 mph - - Snow Light Snow
10:55 PM 21.2 °F 11.7 °F 19.4 °F 93% 29.68 in - SSW 8.1 mph - N/A Fog Light Freezing Fog
11:55 PM 21.2 °F 10.9 °F 19.4 °F 93% 29.68 in - SSW 9.2 mph - N/A Fog Light Freezing Fog